,,PA_Meas_PMT16A,,PR_Meas_QMR101_102,,RH_Meas_QMH101,,SR_Meas_QMS101,,TA_Meas_QMH101,,GenWind,,GenWind,
time,status,PA,status,PR,status,RH,status,SR,status,TA,status,DirAvg,status,SpdAvg,
2014-08-01, 06:52:04,VALID,917.833,VALID,0,VALID,96.825,VALID,52.4313,VALID,18.6124,VALID,19,VALID,0,
2014-08-01, 06:53:04,VALID,917.778,VALID,0,VALID,96.8555,VALID,58.5554,VALID,18.6708,VALID,19,VALID,0,
2014-08-01, 06:54:04,VALID,917.801,VALID,0,VALID,96.8479,VALID,60.5968,VALID,18.7098,VALID,19,VALID,0,
2014-08-01, 06:55:04,VALID,917.783,VALID,0,VALID,96.8631,VALID,62.9605,VALID,18.7878,VALID,19,VALID,0,
2014-08-01, 06:56:04,VALID,917.781,VALID,0,VALID,96.8707,VALID,54.6875,VALID,18.8658,VALID,19,VALID,0,
2014-08-01, 06:57:04,VALID,917.784,VALID,0,VALID,96.8784,VALID,44.6955,VALID,18.9243,VALID,19,VALID,0,
2014-08-01, 06:58:04,VALID,917.78,VALID,0,VALID,96.9012,VALID,44.0509,VALID,19.0218,VALID,19,VALID,0,
2014-08-01, 06:59:04,VALID,917.796,VALID,0,VALID,96.9089,VALID,46.1997,VALID,19.0608,VALID,19,VALID,0,
2014-08-01, 07:00:04,VALID,917.831,VALID,0,VALID,96.9165,VALID,52.0015,VALID,19.0998,VALID,19,VALID,0,
2014-08-01, 07:01:04,VALID,917.839,VALID,0,VALID,96.9165,VALID,50.0676,VALID,19.1583,VALID,19,VALID,0,
2014-08-01, 07:02:04,VALID,917.882,VALID,0,VALID,96.9089,VALID,50.175,VALID,19.1388,VALID,19,VALID,0,
2014-08-01, 07:03:04,VALID,917.876,VALID,0,VALID,96.886,VALID,51.3569,VALID,19.0998,VALID,19,VALID,0,
2014-08-01, 07:04:04,VALID,917.897,VALID,0,VALID,96.8707,VALID,52.5387,VALID,19.0998,VALID,19,VALID,0,
2014-08-01, 07:05:04,VALID,917.882,VALID,0,VALID,96.8403,VALID,53.828,VALID,19.0788,VALID,19,VALID,0,
2014-08-01, 07:06:04,VALID,917.886,VALID,0,VALID,96.8326,VALID,55.2248,VALID,19.0803,VALID,19,VALID,0,
2014-08-01, 07:07:04,VALID,917.933,VALID,0,VALID,96.8098,VALID,56.8364,VALID,19.0998,VALID,19,VALID,0,
2014-08-01, 07:08:04,VALID,917.927,VALID,0,VALID,96.7945,VALID,58.6629,VALID,19.1178,VALID,19,VALID,0,
2014-08-01, 07:09:04,VALID,917.94,VALID,0,VALID,96.7945,VALID,60.5968,VALID,19.1987,VALID,19,VALID,0,
2014-08-01, 07:10:04,VALID,917.937,VALID,0,VALID,96.7793,VALID,62.6382,VALID,19.1763,VALID,19,VALID,0,
2014-08-01, 07:11:04,VALID,917.966,VALID,0,VALID,96.7945,VALID,64.6796,VALID,19.2543,VALID,19,VALID,0,
2014-08-01, 07:12:04,VALID,917.981,VALID,0,VALID,96.8098,VALID,66.5061,VALID,19.3143,VALID,19,VALID,0,
2014-08-01, 07:13:04,VALID,918.003,VALID,0,VALID,96.7869,VALID,68.3326,VALID,19.3323,VALID,19,VALID,0,
2014-08-01, 07:14:04,VALID,918.002,VALID,0,VALID,96.7869,VALID,70.374,VALID,19.3533,VALID,19,VALID,0,
2014-08-01, 07:15:04,VALID,918.003,VALID,0,VALID,96.7793,VALID,72.5228,VALID,19.3923,VALID,19,VALID,0,
2014-08-01, 07:16:04,VALID,918.022,VALID,0,VALID,96.7564,VALID,74.6716,VALID,19.4508,VALID,19,VALID,0,
2014-08-01, 07:17:04,VALID,918.013,VALID,0,VALID,96.7716,VALID,76.6055,VALID,19.4508,VALID,19,VALID,0,
2014-08-01, 07:18:04,VALID,918.005,VALID,0,VALID,96.7183,VALID,77.8948,VALID,19.4103,VALID,19,VALID,0,
2014-08-01, 07:19:04,VALID,917.998,VALID,0,VALID,96.6115,VALID,79.1841,VALID,19.4118,VALID,19,VALID,0,
2014-08-01, 07:20:04,VALID,918.017,VALID,0,VALID,96.4972,VALID,80.1511,VALID,19.4508,VALID,19,VALID,0,
2014-08-01, 07:21:04,VALID,918.007,VALID,0,VALID,96.3981,VALID,81.1181,VALID,19.4898,VALID,19,VALID,0,
2014-08-01, 07:22:04,VALID,918.02,VALID,0,VALID,96.3066,VALID,81.7627,VALID,19.5873,VALID,19,VALID,0,
2014-08-01, 07:23:04,VALID,918.056,VALID,0,VALID,96.2304,VALID,82.4074,VALID,19.6458,VALID,360,VALID,0,
2014-08-01, 07:24:04,VALID,918.051,VALID,0,VALID,96.1084,VALID,83.052,VALID,19.6653,VALID,360,VALID,0,
2014-08-01, 07:25:04,VALID,918.07,VALID,0,VALID,95.9559,VALID,83.3743,VALID,19.6848,VALID,360,VALID,0,
2014-08-01, 07:26:04,VALID,918.094,VALID,0,VALID,95.7501,VALID,83.6967,VALID,19.6848,VALID,360,VALID,0,
2014-08-01, 07:27:04,VALID,918.113,VALID,0,VALID,95.5443,VALID,83.9115,VALID,19.6833,VALID,360,VALID,0,
2014-08-01, 07:28:04,VALID,918.131,VALID,0,VALID,95.4604,VALID,84.1264,VALID,19.7433,VALID,360,VALID,0,
2014-08-01, 07:29:04,VALID,918.154,VALID,0,VALID,95.468,VALID,84.2339,VALID,19.8213,VALID,360,VALID,0,
2014-08-01, 07:30:04,VALID,918.171,VALID,0,VALID,95.4147,VALID,84.4487,VALID,19.8408,VALID,360,VALID,0,
2014-08-01, 07:31:04,VALID,918.191,VALID,0,VALID,95.2546,VALID,84.7711,VALID,19.8198,VALID,360,VALID,0,
2014-08-01, 07:32:04,VALID,918.195,VALID,0,VALID,95.1479,VALID,85.2008,VALID,19.8408,VALID,360,VALID,0,
2014-08-01, 07:33:04,VALID,918.183,VALID,0,VALID,95.1326,VALID,86.0604,VALID,19.8198,VALID,360,VALID,0,
2014-08-01, 07:34:04,VALID,918.201,VALID,0,VALID,94.9878,VALID,87.2422,VALID,19.8393,VALID,360,VALID,0,
2014-08-01, 07:35:04,VALID,918.195,VALID,0,VALID,94.9268,VALID,88.639,VALID,19.8978,VALID,360,VALID,0,
2014-08-01, 07:36:04,VALID,918.205,VALID,0,VALID,94.5609,VALID,90.2506,VALID,19.8783,VALID,360,VALID,0,
2014-08-01, 07:37:04,VALID,918.198,VALID,0,VALID,93.8671,VALID,91.8622,VALID,19.8783,VALID,360,VALID,0,
2014-08-01, 07:38:04,VALID,918.211,VALID,0,VALID,93.9738,VALID,93.3664,VALID,19.9578,VALID,360,VALID,0,
2014-08-01, 07:39:04,VALID,918.233,VALID,0,VALID,93.8214,VALID,95.0854,VALID,19.9578,VALID,360,VALID,0,
2014-08-01, 07:40:04,VALID,918.231,VALID,0,VALID,93.829,VALID,96.8045,VALID,19.9758,VALID,360,VALID,0,
2014-08-01, 07:41:04,VALID,918.258,VALID,0,VALID,93.2649,VALID,98.7384,VALID,19.9758,VALID,360,VALID,0,
2014-08-01, 07:42:04,VALID,918.259,VALID,0,VALID,93.0514,VALID,100.995,VALID,19.9773,VALID,360,VALID,0,
2014-08-01, 07:43:04,VALID,918.303,VALID,0,VALID,93.0285,VALID,103.251,VALID,19.9953,VALID,360,VALID,0,
2014-08-01, 07:44:04,VALID,918.314,VALID,0,VALID,92.8075,VALID,105.4,VALID,20.0343,VALID,360,VALID,0.541016,
2014-08-01, 07:45:04,VALID,918.339,VALID,0,VALID,92.6855,VALID,107.226,VALID,20.0538,VALID,360,VALID,0.480859,
2014-08-01, 07:46:04,VALID,918.361,VALID,0,VALID,92.4339,VALID,109.16,VALID,20.0148,VALID,360,VALID,0.234766,
2014-08-01, 07:47:04,VALID,918.356,VALID,0,VALID,92.3806,VALID,110.557,VALID,19.9743,VALID,360,VALID,0,
2014-08-01, 07:48:04,VALID,918.382,VALID,0,VALID,92.8075,VALID,111.739,VALID,19.9953,VALID,360,VALID,0,
2014-08-01, 07:49:04,VALID,918.406,VALID,0,VALID,92.7617,VALID,113.243,VALID,19.9953,VALID,360,VALID,0.483984,
2014-08-01, 07:50:04,VALID,918.409,VALID,0,VALID,93.1048,VALID,114.962,VALID,20.0343,VALID,360,VALID,0,
2014-08-01, 07:51:04,VALID,918.418,VALID,0,VALID,92.9066,VALID,117.003,VALID,20.0538,VALID,351,VALID,0,
2014-08-01, 07:52:04,VALID,918.426,VALID,0,VALID,92.7541,VALID,119.26,VALID,20.0538,VALID,351,VALID,0,
2014-08-01, 07:53:04,VALID,918.417,VALID,0,VALID,92.7693,VALID,121.731,VALID,20.0928,VALID,351,VALID,0,
2014-08-01, 07:54:04,VALID,918.455,VALID,0,VALID,93.1963,VALID,123.772,VALID,20.1123,VALID,351,VALID,0,
2014-08-01, 07:55:04,VALID,918.464,VALID,0,VALID,93.3182,VALID,125.169,VALID,20.1513,VALID,351,VALID,0,
2014-08-01, 07:56:04,VALID,918.511,VALID,0,VALID,93.2725,VALID,126.351,VALID,20.1513,VALID,351,VALID,0,
2014-08-01, 07:57:04,VALID,918.507,VALID,0,VALID,93.2039,VALID,127.103,VALID,20.1123,VALID,351,VALID,0,
2014-08-01, 07:58:04,VALID,918.548,VALID,0,VALID,93.1734,VALID,128.07,VALID,20.0928,VALID,351,VALID,0,
2014-08-01, 07:59:04,VALID,918.59,VALID,0,VALID,93.0285,VALID,129.144,VALID,20.0733,VALID,351,VALID,0,
2014-08-01, 08:00:04,VALID,918.582,VALID,0,VALID,93.1581,VALID,131.508,VALID,20.1123,VALID,351,VALID,0,
2014-08-01, 08:01:04,VALID,918.626,VALID,0,VALID,93.1734,VALID,134.731,VALID,20.1123,VALID,351,VALID,0,
2014-08-01, 08:02:04,VALID,918.624,VALID,0,VALID,93.2572,VALID,139.673,VALID,20.1513,VALID,351,VALID,0,
2014-08-01, 08:03:04,VALID,918.636,VALID,0,VALID,93.4783,VALID,148.806,VALID,20.1903,VALID,351,VALID,0,
2014-08-01, 08:04:04,VALID,918.644,VALID,0,VALID,93.4478,VALID,153.748,VALID,20.2684,VALID,351,VALID,0,
2014-08-01, 08:05:04,VALID,918.654,VALID,0,VALID,93.0972,VALID,159.443,VALID,20.2684,VALID,351,VALID,0,
2014-08-01, 08:06:04,VALID,918.656,VALID,0,VALID,92.5406,VALID,168.468,VALID,20.2879,VALID,351,VALID,0,
2014-08-01, 08:07:04,VALID,918.669,VALID,0,VALID,92.2281,VALID,169.22,VALID,20.3464,VALID,351,VALID,0,
2014-08-01, 08:08:04,VALID,918.672,VALID,0,VALID,91.9536,VALID,168.145,VALID,20.3869,VALID,351,VALID,0,
2014-08-01, 08:09:04,VALID,918.689,VALID,0,VALID,91.8698,VALID,168.253,VALID,20.4634,VALID,351,VALID,0,
2014-08-01, 08:10:04,VALID,918.664,VALID,0,VALID,91.2523,VALID,168.145,VALID,20.4423,VALID,351,VALID,0,
2014-08-01, 08:11:04,VALID,918.673,VALID,0,VALID,90.8025,VALID,168.468,VALID,20.5024,VALID,351,VALID,0,
2014-08-01, 08:12:04,VALID,918.695,VALID,0,VALID,90.3527,VALID,170.509,VALID,20.5999,VALID,351,VALID,0,
2014-08-01, 08:13:04,VALID,918.711,VALID,0,VALID,88.7747,VALID,173.625,VALID,20.6194,VALID,351,VALID,0,
2014-08-01, 08:14:04,VALID,918.698,VALID,0,VALID,88.9805,VALID,176.956,VALID,20.6975,VALID,351,VALID,0,
2014-08-01, 08:15:04,VALID,918.717,VALID,0,VALID,88.4621,VALID,180.179,VALID,20.678,VALID,351,VALID,0,
2014-08-01, 08:16:04,VALID,918.7,VALID,0,VALID,88.9729,VALID,183.187,VALID,20.7365,VALID,351,VALID,0,
2014-08-01, 08:17:04,VALID,918.719,VALID,0,VALID,89.072,VALID,186.196,VALID,20.795,VALID,351,VALID,0,
2014-08-01, 08:18:04,VALID,918.681,VALID,0,VALID,89.2245,VALID,189.311,VALID,20.8746,VALID,351,VALID,0,
2014-08-01, 08:19:04,VALID,918.691,VALID,0,VALID,89.3541,VALID,192.32,VALID,20.9511,VALID,351,VALID,0,
2014-08-01, 08:20:04,VALID,918.714,VALID,0,VALID,88.7289,VALID,194.791,VALID,20.9901,VALID,351,VALID,0,
2014-08-01, 08:21:04,VALID,918.667,VALID,0,VALID,87.128,VALID,197.155,VALID,21.0486,VALID,351,VALID,0,
2014-08-01, 08:22:04,VALID,918.694,VALID,0,VALID,87.2119,VALID,199.733,VALID,21.1461,VALID,351,VALID,0,
2014-08-01, 08:23:04,VALID,918.704,VALID,0,VALID,86.9222,VALID,202.204,VALID,21.2258,VALID,351,VALID,0,
2014-08-01, 08:24:04,VALID,918.712,VALID,0,VALID,86.8841,VALID,204.998,VALID,21.2421,VALID,351,VALID,0,
2014-08-01, 08:25:04,VALID,918.705,VALID,0,VALID,86.5258,VALID,207.469,VALID,21.3217,VALID,351,VALID,0,
2014-08-01, 08:26:04,VALID,918.69,VALID,0,VALID,85.9388,VALID,210.477,VALID,21.3412,VALID,349,VALID,0,
2014-08-01, 08:27:04,VALID,918.703,VALID,0,VALID,86.6401,VALID,213.7,VALID,21.3608,VALID,348,VALID,0,
2014-08-01, 08:28:04,VALID,918.717,VALID,0,VALID,86.9298,VALID,216.601,VALID,21.3981,VALID,348,VALID,0,
2014-08-01, 08:29:04,VALID,918.744,VALID,0,VALID,86.2208,VALID,219.395,VALID,21.4372,VALID,348,VALID,0,
2014-08-01, 08:30:04,VALID,918.732,VALID,0,VALID,85.8092,VALID,222.403,VALID,21.5168,VALID,348,VALID,0,
2014-08-01, 08:31:04,VALID,918.737,VALID,0,VALID,85.3136,VALID,225.304,VALID,21.5347,VALID,331,VALID,0.447656,
2014-08-01, 08:32:04,VALID,918.739,VALID,0,VALID,86.2513,VALID,227.56,VALID,21.5737,VALID,358,VALID,0.818359,
2014-08-01, 08:33:04,VALID,918.76,VALID,0,VALID,85.8397,VALID,230.246,VALID,21.6323,VALID,350,VALID,0.707031,
2014-08-01, 08:34:04,VALID,918.785,VALID,0,VALID,85.0392,VALID,235.189,VALID,21.6713,VALID,329,VALID,0.958203,
2014-08-01, 08:35:04,VALID,918.768,VALID,0,VALID,84.0939,VALID,247.759,VALID,21.7103,VALID,341,VALID,0.773438,
2014-08-01, 08:36:04,VALID,918.769,VALID,0,VALID,84.8258,VALID,256.569,VALID,21.7315,VALID,3,VALID,1.04258,
2014-08-01, 08:37:04,VALID,918.767,VALID,0,VALID,85.6338,VALID,265.38,VALID,21.7493,VALID,346,VALID,0.839453,
2014-08-01, 08:38:04,VALID,918.742,VALID,0,VALID,85.4432,VALID,279.24,VALID,21.7688,VALID,330,VALID,0.594922,
2014-08-01, 08:39:04,VALID,918.774,VALID,0,VALID,85.1383,VALID,330.811,VALID,21.8664,VALID,19,VALID,1.07109,
2014-08-01, 08:40:04,VALID,918.769,VALID,0,VALID,83.7127,VALID,337.688,VALID,21.9249,VALID,12,VALID,1.01953,
2014-08-01, 08:41:04,VALID,918.76,VALID,0,VALID,82.9275,VALID,335.754,VALID,22.042,VALID,334,VALID,1.27539,
2014-08-01, 08:42:04,VALID,918.78,VALID,0,VALID,83.6822,VALID,371.961,VALID,22.0598,VALID,7,VALID,1.33711,
2014-08-01, 08:43:04,VALID,918.762,VALID,0,VALID,82.9046,VALID,324.257,VALID,22.081,VALID,20,VALID,1.84258,
2014-08-01, 08:44:04,VALID,918.833,VALID,0,VALID,82.9351,VALID,287.942,VALID,22.1379,VALID,348,VALID,1.61367,
2014-08-01, 08:45:04,VALID,918.82,VALID,0,VALID,81.6315,VALID,299.761,VALID,22.1591,VALID,349,VALID,0.796094,
2014-08-01, 08:46:04,VALID,918.821,VALID,0,VALID,81.4181,VALID,280.959,VALID,22.1769,VALID,14,VALID,1.48164,
2014-08-01, 08:47:04,VALID,918.829,VALID,0,VALID,82.4854,VALID,348.432,VALID,22.1786,VALID,17,VALID,1.47656,
2014-08-01, 08:48:04,VALID,918.857,VALID,0,VALID,84.1778,VALID,310.72,VALID,22.1786,VALID,18,VALID,0.666016,
2014-08-01, 08:49:04,VALID,918.864,VALID,0,VALID,84.3531,VALID,273.438,VALID,22.3152,VALID,17,VALID,0.942969,
2014-08-01, 08:50:04,VALID,918.862,VALID,0,VALID,82.5235,VALID,262.694,VALID,22.4128,VALID,340,VALID,1.34961,
2014-08-01, 08:51:04,VALID,918.824,VALID,0,VALID,80.6252,VALID,240.776,VALID,22.3542,VALID,344,VALID,1.43086,
2014-08-01, 08:52:04,VALID,918.839,VALID,0,VALID,80.5109,VALID,221.973,VALID,22.2583,VALID,15,VALID,1.41562,
2014-08-01, 08:53:04,VALID,918.854,VALID,0,VALID,81.1818,VALID,217.891,VALID,22.1786,VALID,24,VALID,0.737109,
2014-08-01, 08:54:04,VALID,918.859,VALID,0,VALID,82.3634,VALID,203.386,VALID,22.2176,VALID,3,VALID,1.3168,
2014-08-01, 08:55:04,VALID,918.832,VALID,0,VALID,81.8374,VALID,200.593,VALID,22.1786,VALID,24,VALID,1.33438,
2014-08-01, 08:56:04,VALID,918.86,VALID,0,VALID,82.5082,VALID,201.56,VALID,22.1981,VALID,360,VALID,0.941016,
2014-08-01, 08:57:04,VALID,918.853,VALID,0,VALID,83.0495,VALID,201.989,VALID,22.2957,VALID,33,VALID,0.584375,
2014-08-01, 08:58:04,VALID,918.811,VALID,0,VALID,79.7867,VALID,211.767,VALID,22.3364,VALID,34,VALID,1.7832,
2014-08-01, 08:59:04,VALID,918.821,VALID,0,VALID,79.5808,VALID,223.692,VALID,22.2567,VALID,8,VALID,1.28672,
2014-08-01, 09:00:04,VALID,918.83,VALID,0,VALID,80.6786,VALID,263.875,VALID,22.1981,VALID,20,VALID,1.58555,
2014-08-01, 09:01:04,VALID,918.81,VALID,0,VALID,80.8844,VALID,415.582,VALID,22.1786,VALID,16,VALID,1.39648,
2014-08-01, 09:02:04,VALID,918.804,VALID,0,VALID,82.6455,VALID,270.537,VALID,22.2762,VALID,10,VALID,1.20586,
2014-08-01, 09:03:04,VALID,918.809,VALID,0,VALID,83.0114,VALID,247.759,VALID,22.3933,VALID,2,VALID,1.00117,
2014-08-01, 09:04:04,VALID,918.812,VALID,0,VALID,82.7446,VALID,252.487,VALID,22.3737,VALID,277,VALID,0.725,
2014-08-01, 09:05:04,VALID,918.792,VALID,0,VALID,82.7979,VALID,317.489,VALID,22.3737,VALID,338,VALID,0.895703,
2014-08-01, 09:06:04,VALID,918.826,VALID,0,VALID,82.8132,VALID,298.257,VALID,22.4306,VALID,1,VALID,0.553906,
2014-08-01, 09:07:04,VALID,918.778,VALID,0,VALID,81.6087,VALID,394.739,VALID,22.5299,VALID,343,VALID,0.739453,
2014-08-01, 09:08:04,VALID,918.788,VALID,0,VALID,81.6697,VALID,575.562,VALID,22.4501,VALID,304,VALID,0.596094,
2014-08-01, 09:09:04,VALID,918.802,VALID,0,VALID,82.2719,VALID,518.833,VALID,22.5672,VALID,305,VALID,0.465234,
2014-08-01, 09:10:04,VALID,918.745,VALID,0,VALID,82.1728,VALID,547.52,VALID,22.8014,VALID,306,VALID,0.295703,
2014-08-01, 09:11:04,VALID,918.782,VALID,0,VALID,78.1476,VALID,594.902,VALID,23.0746,VALID,14,VALID,1.41758,
2014-08-01, 09:12:04,VALID,918.758,VALID,0,VALID,77.4768,VALID,468.873,VALID,23.2893,VALID,324,VALID,0.875,
2014-08-01, 09:13:04,VALID,918.783,VALID,0,VALID,74.9839,VALID,488.535,VALID,23.1527,VALID,287,VALID,1.44258,
2014-08-01, 09:14:04,VALID,918.786,VALID,0,VALID,78.0943,VALID,393.557,VALID,22.977,VALID,290,VALID,0.490625,
2014-08-01, 09:15:04,VALID,918.783,VALID,0,VALID,79.7714,VALID,585.017,VALID,23.016,VALID,290,VALID,0.204688,
2014-08-01, 09:16:04,VALID,918.778,VALID,0,VALID,77.8808,VALID,509.056,VALID,23.2502,VALID,299,VALID,0.416797,
2014-08-01, 09:17:04,VALID,918.764,VALID,0,VALID,76.4857,VALID,510.131,VALID,23.4259,VALID,326,VALID,0.708594,
2014-08-01, 09:18:04,VALID,918.788,VALID,0,VALID,75.853,VALID,531.834,VALID,23.6406,VALID,25,VALID,0.667188,
2014-08-01, 09:19:04,VALID,918.768,VALID,0,VALID,75.5938,VALID,553.537,VALID,23.7382,VALID,354,VALID,0.444922,
2014-08-01, 09:20:04,VALID,918.75,VALID,0,VALID,75.0983,VALID,545.264,VALID,23.8944,VALID,325,VALID,0.523438,
2014-08-01, 09:21:04,VALID,918.772,VALID,0,VALID,73.9243,VALID,576.529,VALID,23.9512,VALID,299,VALID,0.632422,
2014-08-01, 09:22:04,VALID,918.752,VALID,0,VALID,72.5292,VALID,590.497,VALID,23.7968,VALID,256,VALID,0.547266,
2014-08-01, 09:23:04,VALID,918.718,VALID,0,VALID,71.4009,VALID,492.725,VALID,23.8163,VALID,333,VALID,0.80625,
2014-08-01, 09:24:04,VALID,918.747,VALID,0,VALID,72.8036,VALID,436.104,VALID,23.8749,VALID,308,VALID,0.629297,
2014-08-01, 09:25:04,VALID,918.704,VALID,0,VALID,72.026,VALID,418.591,VALID,23.8358,VALID,263,VALID,0.316797,
2014-08-01, 09:26:04,VALID,918.723,VALID,0,VALID,73.1695,VALID,397.532,VALID,23.8944,VALID,305,VALID,0.701563,
2014-08-01, 09:27:04,VALID,918.698,VALID,0,VALID,70.2117,VALID,392.483,VALID,23.992,VALID,268,VALID,1.04531,
2014-08-01, 09:28:04,VALID,918.682,VALID,0,VALID,70.9816,VALID,426.326,VALID,23.7578,VALID,297,VALID,1.04531,
2014-08-01, 09:29:04,VALID,918.68,VALID,0,VALID,72.8265,VALID,489.824,VALID,23.5235,VALID,275,VALID,1.2125,
2014-08-01, 09:30:04,VALID,918.672,VALID,0,VALID,73.7413,VALID,334.679,VALID,23.3869,VALID,296,VALID,0.6875,
2014-08-01, 09:31:04,VALID,918.694,VALID,0,VALID,75.083,VALID,317.166,VALID,23.4845,VALID,312,VALID,0.441406,
2014-08-01, 09:32:04,VALID,918.734,VALID,0,VALID,73.7108,VALID,411.07,VALID,23.543,VALID,336,VALID,1.42695,
2014-08-01, 09:33:04,VALID,918.746,VALID,0,VALID,73.7413,VALID,377.763,VALID,23.4845,VALID,267,VALID,1.05859,
2014-08-01, 09:34:04,VALID,918.738,VALID,0,VALID,75.0754,VALID,427.079,VALID,23.4437,VALID,267,VALID,0.465234,
2014-08-01, 09:35:04,VALID,918.765,VALID,0,VALID,74.7552,VALID,424.93,VALID,23.4454,VALID,251,VALID,1.05273,
2014-08-01, 09:36:04,VALID,918.787,VALID,0,VALID,74.6866,VALID,439.112,VALID,23.4241,VALID,350,VALID,0.56875,
2014-08-01, 09:37:04,VALID,918.786,VALID,0,VALID,73.7184,VALID,387.755,VALID,23.5803,VALID,311,VALID,0.658984,
2014-08-01, 09:38:04,VALID,918.79,VALID,0,VALID,74.0157,VALID,437.608,VALID,23.6584,VALID,311,VALID,0.0652344,
2014-08-01, 09:39:04,VALID,918.788,VALID,0,VALID,72.7045,VALID,525.065,VALID,23.834,VALID,334,VALID,1.075,
2014-08-01, 09:40:04,VALID,918.699,VALID,0,VALID,73.2991,VALID,617.894,VALID,23.834,VALID,41,VALID,1.31836,
2014-08-01, 09:41:04,VALID,918.729,VALID,0,VALID,75.1135,VALID,575.025,VALID,23.9512,VALID,339,VALID,0.775,
2014-08-01, 09:42:04,VALID,918.705,VALID,0,VALID,71.7287,VALID,518.941,VALID,24.0292,VALID,3,VALID,1.40273,
2014-08-01, 09:43:04,VALID,918.661,VALID,0,VALID,72.9561,VALID,497.667,VALID,24.0683,VALID,7,VALID,1.75391,
2014-08-01, 09:44:04,VALID,918.663,VALID,0,VALID,71.0655,VALID,451.468,VALID,24.0878,VALID,2,VALID,1.46758,
2014-08-01, 09:45:04,VALID,918.671,VALID,0,VALID,70.8368,VALID,434.062,VALID,24.1287,VALID,342,VALID,0.391406,
2014-08-01, 09:46:04,VALID,918.695,VALID,0,VALID,69.4112,VALID,450.178,VALID,24.1641,VALID,306,VALID,1.01992,
2014-08-01, 09:47:04,VALID,918.697,VALID,0,VALID,70.1431,VALID,545.371,VALID,24.1836,VALID,339,VALID,0.642578,
2014-08-01, 09:48:04,VALID,918.733,VALID,0,VALID,70.5014,VALID,650.878,VALID,24.2635,VALID,342,VALID,1.675,
2014-08-01, 09:49:04,VALID,918.716,VALID,0,VALID,68.3592,VALID,669.788,VALID,24.3398,VALID,344,VALID,1.63125,
2014-08-01, 09:50:04,VALID,918.742,VALID,0,VALID,68.9538,VALID,548.809,VALID,24.3416,VALID,27,VALID,2.44219,
2014-08-01, 09:51:04,VALID,918.764,VALID,0,VALID,69.3655,VALID,497.775,VALID,24.2812,VALID,355,VALID,1.34648,
2014-08-01, 09:52:04,VALID,918.758,VALID,0,VALID,67.2385,VALID,516.362,VALID,24.3221,VALID,321,VALID,1.80078,
2014-08-01, 09:53:04,VALID,918.76,VALID,0,VALID,69.5713,VALID,550.743,VALID,24.0488,VALID,323,VALID,1.54297,
2014-08-01, 09:54:04,VALID,918.776,VALID,0,VALID,68.6565,VALID,622.299,VALID,24.0292,VALID,330,VALID,1.26289,
2014-08-01, 09:55:04,VALID,918.777,VALID,0,VALID,68.2829,VALID,718.674,VALID,24.1287,VALID,352,VALID,1.95859,
2014-08-01, 09:56:04,VALID,918.781,VALID,0,VALID,67.147,VALID,751.551,VALID,24.2049,VALID,359,VALID,2.04453,
2014-08-01, 09:57:04,VALID,918.784,VALID,0,VALID,66.9412,VALID,511.85,VALID,24.2635,VALID,338,VALID,1.03555,
2014-08-01, 09:58:04,VALID,918.82,VALID,0,VALID,70.0439,VALID,560.735,VALID,24.3611,VALID,3,VALID,1.59336,
2014-08-01, 09:59:04,VALID,918.788,VALID,0,VALID,70.6386,VALID,680.21,VALID,24.4587,VALID,18,VALID,1.54414,
2014-08-01, 10:00:04,VALID,918.794,VALID,0,VALID,69.922,VALID,582.546,VALID,24.6149,VALID,7,VALID,1.6375,
2014-08-01, 10:01:04,VALID,918.807,VALID,0,VALID,65.7138,VALID,688.053,VALID,24.7126,VALID,335,VALID,1.79062,
2014-08-01, 10:02:04,VALID,918.771,VALID,0,VALID,65.2793,VALID,711.69,VALID,24.7516,VALID,246,VALID,1.00977,
2014-08-01, 10:03:04,VALID,918.803,VALID,0,VALID,68.5345,VALID,707.5,VALID,24.9274,VALID,20,VALID,2.0082,
2014-08-01, 10:04:04,VALID,918.771,VALID,0,VALID,68.0314,VALID,655.928,VALID,24.9664,VALID,28,VALID,1.66133,
2014-08-01, 10:05:04,VALID,918.762,VALID,0,VALID,66.7659,VALID,690.847,VALID,24.8707,VALID,247,VALID,1.77422,
2014-08-01, 10:06:04,VALID,918.767,VALID,0,VALID,66.7887,VALID,761.113,VALID,24.7516,VALID,340,VALID,1.16602,
2014-08-01, 10:07:04,VALID,918.775,VALID,0,VALID,66.7887,VALID,702.558,VALID,24.8492,VALID,348,VALID,0.838281,
2014-08-01, 10:08:04,VALID,918.749,VALID,0,VALID,64.7152,VALID,748.005,VALID,24.9664,VALID,12,VALID,1.32813,
2014-08-01, 10:09:04,VALID,918.721,VALID,0,VALID,64.5627,VALID,665.813,VALID,24.9645,VALID,7,VALID,2.07617,
2014-08-01, 10:10:04,VALID,918.745,VALID,0,VALID,67.0708,VALID,763.799,VALID,25.0445,VALID,350,VALID,1.38828,
2014-08-01, 10:11:04,VALID,918.754,VALID,0,VALID,68.1838,VALID,741.774,VALID,25.2203,VALID,14,VALID,2.12891,
2014-08-01, 10:12:04,VALID,918.741,VALID,0,VALID,65.8663,VALID,773.469,VALID,25.3765,VALID,333,VALID,1.55664,
2014-08-01, 10:13:04,VALID,918.739,VALID,0,VALID,64.8753,VALID,801.081,VALID,25.2984,VALID,17,VALID,3.00938,
2014-08-01, 10:14:04,VALID,918.764,VALID,0,VALID,64.1434,VALID,775.94,VALID,25.2398,VALID,53,VALID,1.24023,
2014-08-01, 10:15:04,VALID,918.744,VALID,0,VALID,66.7125,VALID,646.581,VALID,25.396,VALID,25,VALID,1.23203,
2014-08-01, 10:16:04,VALID,918.744,VALID,0,VALID,66.1484,VALID,755.096,VALID,25.6109,VALID,355,VALID,0.858984,
2014-08-01, 10:17:04,VALID,918.746,VALID,0,VALID,63.9681,VALID,764.229,VALID,25.6694,VALID,306,VALID,0.617969,
2014-08-01, 10:18:04,VALID,918.742,VALID,0,VALID,63.93,VALID,791.734,VALID,25.6694,VALID,95,VALID,1.17148,
2014-08-01, 10:19:04,VALID,918.742,VALID,0,VALID,65.043,VALID,767.774,VALID,25.7456,VALID,325,VALID,2.18203,
2014-08-01, 10:20:04,VALID,918.769,VALID,0,VALID,64.6771,VALID,829.446,VALID,25.728,VALID,336,VALID,1.46211,
2014-08-01, 10:21:04,VALID,918.737,VALID,0,VALID,62.695,VALID,693.64,VALID,25.6499,VALID,358,VALID,2.31172,
2014-08-01, 10:22:04,VALID,918.72,VALID,0,VALID,62.2376,VALID,657.862,VALID,25.5523,VALID,347,VALID,1.87773,
2014-08-01, 10:23:04,VALID,918.713,VALID,0,VALID,63.625,VALID,568.041,VALID,25.4546,VALID,343,VALID,1.77305,
2014-08-01, 10:24:04,VALID,918.721,VALID,0,VALID,65.4165,VALID,530.33,VALID,25.4527,VALID,18,VALID,1.67109,
2014-08-01, 10:25:04,VALID,918.722,VALID,0,VALID,65.0659,VALID,518.511,VALID,25.4527,VALID,7,VALID,1.74102,
2014-08-01, 10:26:04,VALID,918.719,VALID,0,VALID,64.5856,VALID,490.039,VALID,25.316,VALID,345,VALID,1.37891,
2014-08-01, 10:27:04,VALID,918.71,VALID,0,VALID,65.508,VALID,480.477,VALID,25.2183,VALID,356,VALID,0.948047,
2014-08-01, 10:28:04,VALID,918.716,VALID,0,VALID,65.4699,VALID,503.254,VALID,25.1793,VALID,9,VALID,1.69531,
2014-08-01, 10:29:04,VALID,918.703,VALID,0,VALID,64.6771,VALID,514.536,VALID,25.1012,VALID,14,VALID,1.85547,
2014-08-01, 10:30:04,VALID,918.723,VALID,0,VALID,67.0784,VALID,511.42,VALID,25.0426,VALID,351,VALID,1.74883,
2014-08-01, 10:31:04,VALID,918.668,VALID,0,VALID,64.5475,VALID,509.164,VALID,25.1207,VALID,4,VALID,1.87773,